Simultaneous Nadir Overpasses (SNOs) Predictions

Prediction of SNOs between GOES-14 and AQUA Satellite Orbit:

Table of predicted SNOs for the next 14.0 days since TLE Epoch: 8/28/2021
Index Date Time (GOES-14) GOES-14 Lat,Lon AQUA Lat,Lon Distance(km) Time Diff (sec)
1 08/29/2021 20:26:28 -0.41,-104.33 0.03,-102.42 218.68 80
2 08/30/2021 08:47:42 0.41,-104.19 1.15,-107.56 383.40 80
3 09/01/2021 08:35:32 0.41,-104.18 0.49,-104.61 48.77 80
4 09/03/2021 08:20:41 0.40,-104.17 -0.12,-101.65 285.61 80
5 09/03/2021 20:42:05 -0.40,-104.29 -0.96,-106.85 291.22 80
6 09/05/2021 20:32:34 -0.39,-104.28 -0.34,-103.89 44.08 80
7 09/07/2021 20:20:25 -0.39,-104.28 0.35,-100.95 379.62 80
8 09/08/2021 08:41:39 0.39,-104.18 0.78,-106.10 218.34 80
9 09/10/2021 08:26:48 0.39,-104.16 0.16,-103.14 116.47 80
10 09/10/2021 20:48:12 -0.38,-104.24 -1.28,-108.33 465.36 80
